CubeBel-2 (EU11S)
1 57175U 23091K   26166.54787681  .00010849  00000-0  38571-3 0  9996
2 57175  97.5055 229.7498 0011274 119.6432 240.5932 15.29117342164056
RS-38S
1 57189U 23091Z   26166.58411197  .00014203  00000-0  40705-3 0  9991
2 57189  97.5097 236.0367 0008359  82.5639 277.6554 15.35983366164448
SONATE-2
1 59112U 24043Q   26166.40491472  .00034026  00000-0  44395-3 0  9996
2 59112  97.5529 316.6914 0007010 201.6141 158.4820 15.58601060127617
GRBBeta
1 60237U 24128C   26166.49446256  .00002913  00000-0  20649-3 0  9995
2 60237  61.9889 222.2055 0040851 134.3380 226.1074 15.06630585106018
Curium One
1 60242U 24128H   26166.45122146  .00005031  00000-0  29496-3 0  9999
2 60242  61.9769 211.9234 0039952 130.4159 230.0433 15.12492976106195
ROBUSTA-3A
1 60243U 24128J   26166.48116713  .00004988  00000-0  29892-3 0  9996
2 60243  61.9852 214.2780 0041531 127.7723 232.7146 15.11661934106161
CatSat
1 60246U 24125J   26166.34199224  .00047171  00000-0  61081-3 0  9996
2 60246  97.2080  18.8190 0022337 185.9249 174.1747 15.58456533107103
HYPERVIEW-1G (RS66S)
1 61772U 24199AP  26166.60190755  .00120488  00000-0  78713-3 0  9994
2 61772  97.2877  46.2417 0003481 226.5941 133.5035 15.75482058134423
AO-123
1 61781U 24199AY  26166.60114316  .00006603  00000-0  19233-3 0  9997
2 61781  97.3000  35.2866 0012436 320.5786  39.4552 15.35656942133686
JINJUSat 1B
1 63210U 25052A   26166.25359750  .00013466  00000-0  41849-3 0  9992
2 63210  97.4015  63.0067 0005488  95.7374 264.4494 15.33451604 69800
NUSHSAT 1
1 63211U 25052B   26166.23524118  .00015539  00000-0  44637-3 0  9994
2 63211  97.3989  63.5470 0005237  97.9752 262.2087 15.35907168 69840
TEVEL2-4
1 63213U 25052D   26166.16079356  .00014823  00000-0  44473-3 0  9990
2 63213  97.3913  62.5494 0004846 107.3580 252.8193 15.34549992 69809
TEVEL2-5
1 63214U 25052E   26166.50714160  .00015702  00000-0  47332-3 0  9992
2 63214  97.3909  62.8448 0004756 107.9280 252.2482 15.34389584 69859
TEVEL2-6
1 63215U 25052F   26166.45421808  .00014975  00000-0  45210-3 0  9995
2 63215  97.3915  62.7761 0004671 108.6521 251.5230 15.34350757 69848
TEVEL2-1
1 63217U 25052H   26166.22168631  .00014089  00000-0  43283-3 0  9998
2 63217  97.3885  62.1701 0004698 117.4022 242.7699 15.33812138 69797
TEVEL2-3
1 63218U 25052J   26166.21640006  .00014569  00000-0  44668-3 0  9990
2 63218  97.3890  62.1864 0004653 117.3895 242.7821 15.33867104 69792
TEVEL2-2
1 63219U 25052K   26166.22201124  .00014328  00000-0  43999-3 0  9995
2 63219  97.3886  62.1729 0004671 117.7960 242.3756 15.33820586 69791
TEVEL2-9
1 63237U 25052AD  26166.26221951  .00013263  00000-0  43321-3 0  9995
2 63237  97.3947  61.5923 0007638 136.2266 223.9582 15.31847587 69733
TEVEL2-7
1 63238U 25052AE  26166.23742285  .00012882  00000-0  42471-3 0  9992
2 63238  97.3951  61.4847 0007732 136.5558 223.6294 15.31552974 69724
TEVEL2-8
1 63239U 25052AF  26166.50699842  .00013370  00000-0  44078-3 0  9991
2 63239  97.3950  61.7304 0007754 136.5757 223.6096 15.31544661 69768
SPIRONE
1 66657U 25274H   26166.51305635  .00001373  00000-0  13559-3 0  9999
2 66657  97.7484  95.8284 0012833  26.8355 333.3526 14.93539825 29974
K-HERO
1 66660U 25274L   26166.31718518  .00001268  00000-0  12428-3 0  9996
2 66660  97.7491  95.7950 0014791  30.5402 329.6676 14.93956024 29951
SNUGLITE-III DURI
1 66661U 25274M   26166.30501311  .00001485  00000-0  14443-3 0  9997
2 66661  97.7488  95.8032 0015475  31.4633 328.7510 14.93996943 29957
SAKHACUBE-CHOLBON
1 67290U 25313AU  26166.45411810  .00007356  00000-0  29853-3 0  9994
2 67290  97.3939 241.5102 0009022  11.7528 348.3919 15.24861365 25711
RS95S (QMR-KWT-2)
1 67291U 25313AV  26166.57509680  .00011413  00000-0  44256-3 0  9994
2 67291  97.3935 241.8018 0008365   9.1954 350.9436 15.26258709 25740
Ten-Koh2
1 68261U 25241B   26165.65492329  .00005705  00000-0  24669-3 0  9994
2 68261  51.6691 331.6795 0006087 134.4842 225.6634 15.23877984 14528
JACK-002
1 68417U 26067B   26166.44913444  .00005326  00000-0  25502-3 0  9994
2 68417  97.4567 125.0612 0000389  11.4319 348.6924 15.19375186 11680
DISCO 2
1 68431U 26067R   26165.87708211  .00007307  00000-0  35190-3 0  9995
2 68431  97.4601 124.4850 0003056  47.8128 312.3366 15.19043115 11599
HADES-SA (SpinnyONE)
1 68446U 26067AG  26166.11386530  .00014704  00000-0  70433-3 0  9993
2 68446  97.4398 124.4405 0009560  87.3612 272.8717 15.18996836 11616
PARUS-6U1
1 68456U 26067AS  26166.40807814  .00004416  00000-0  22353-3 0  9996
2 68456  97.4553 124.7989 0007557  76.5267 283.6808 15.17500476 11666
SAL-E
1 68458U 26067AU  26166.40379077  .00005677  00000-0  28443-3 0  9999
2 68458  97.4479 124.7320 0008019  83.8040 276.4107 15.17733630 11660
FSI-SAT 2
1 68792U 26088A   26166.35997854  .00004321  00000-0  29325-3 0  9991
2 68792  97.5062 315.6649 0015675 112.3530 247.9361 15.06823435  8014
OrigamiSat 2
1 68795U 26088D   26166.37146187  .00010285  00000-0  65752-3 0  9991
2 68795  97.5064 315.8067 0016080  87.0633 273.2435 15.08698997  8028
ARICA 2
1 68796U 26088E   26166.37036933  .00004231  00000-0  27510-3 0  9993
2 68796  97.5051 315.7964 0016957  85.9612 274.3554 15.08413605  8022
WASEDA-SAT-ZERO-II
1 68797U 26088F   26166.36634240  .00005770  00000-0  37150-3 0  9998
2 68797  97.5052 315.8008 0016735  85.9234 274.3907 15.08624197  8020
MANGARO-II-Piscus
1 68798U 26088G   26166.35697053  .00003752  00000-0  24166-3 0  9990
2 68798  97.5066 315.8201 0020478  88.2913 272.0661 15.08774152  8029
IO-86
1 40931U          25360.30710720  .00000000  00000-0  12800-3 0    00
2 40931   6.0006 332.5373 0012733 338.8432   8.1437 14.79075515    01
LILIUM-4                
1 71922C 26067AC  26089.50133053 -.00014632  00000+0 -74472-3 0    04
2 71922  97.4497  49.1617 0004341   5.9603 355.7042 15.16896692    16
